Change the Weather History Date:

Sunday, August 4, 2013

  Actual Average Record
Temperature  
Mean Temperature 71 °F 75 °F  
Max Temperature 83 °F 90 °F 105 °F (1947)
Min Temperature 58 °F 61 °F 47 °F (1952)
Degree Days  
Heating Degree Days 0 0  
Month to date heating degree days 0 0  
Since 1 June heating degree days 59 101  
Since 1 July heating degree days 0 12  
Cooling Degree Days 6 11  
Month to date cooling degree days 25 44  
Year to date cooling degree days 450 459  
Since 1 June cooling degree days 437 439  
Growing Degree Days 20 (Base 50)    
Moisture  
Dew Point 59 °F    
Average Humidity 70    
Maximum Humidity 100    
Minimum Humidity 40    
Precipitation  
Precipitation 0.01 in 0.04 in 0.70 in (1953)
Month to date precipitation 0.83 0.16  
Year to date precipitation 12.95 9.01  
Sea Level Pressure  
Sea Level Pressure 30.01 in    
Wind  
Wind Speed 6 mph (North)    
Max Wind Speed 13 mph    
Max Gust Speed 16 mph    
Visibility 10 miles    
Events      
T = Trace of Precipitation, MM = Missing Value Source: NWS Daily Summary

Daily Weather History Graph

Daily Weather History Graph

Search for Another Location

Airport or City:

Trip Planner

Search our weather history database for the weather conditions in past years. The results will help you decide how hot, cold, wet, or windy it might be!

Date:

Astronomy

Aug. 04, 2013 Rise Set
Actual Time 5:48 AM MDT 8:29 PM MDT
Civil Twilight 5:14 AM MDT 9:03 PM MDT
Nautical Twilight 4:30 AM MDT 9:47 PM MDT
Astronomical Twilight 3:39 AM MDT 10:37 PM MDT
Moon 3:50 AM MDT (8/4) 6:54 PM MDT (8/4)
Length of Visible Light 15h 49m
Length of Day
14h 40m
Waning Crescent, 4% of the Moon is Illuminated
Aug 4
Waning Crescent
Aug 6
New
Aug 14
First Quarter
Aug 20
Full
Aug 28
Last Quarter

Hourly Weather History & Observations

Time (MDT) Temp. Heat Index Dew Point Humidity Pressure Visibility Wind Dir Wind Speed Gust Speed Precip Events Conditions
12:53 AM 61.0 °F - 57.9 °F 90% 30.01 in 10.0 mi NNE 6.9 mph - N/A   Clear
1:53 AM 61.0 °F - 57.9 °F 90% 30.00 in 10.0 mi North 5.8 mph - N/A   Partly Cloudy
2:53 AM 60.1 °F - 57.9 °F 93% 29.99 in 10.0 mi North 3.5 mph - N/A   Clear
3:53 AM 59.0 °F - 57.9 °F 96% 29.99 in 10.0 mi NW 5.8 mph - N/A   Clear
4:53 AM 57.9 °F - 57.0 °F 97% 29.99 in 10.0 mi NW 5.8 mph - N/A   Clear
5:53 AM 57.9 °F - 55.9 °F 93% 29.99 in 7.0 mi NW 4.6 mph - 0.01 in   Clear
6:53 AM 59.0 °F - 57.0 °F 93% 30.01 in 10.0 mi NW 4.6 mph - N/A   Scattered Clouds
7:04 AM 59.0 °F - 57.2 °F 94% 30.06 in 10.0 mi Calm Calm - N/A   Mostly Cloudy
7:53 AM 60.1 °F - 57.9 °F 93% 30.04 in 10.0 mi NW 5.8 mph - N/A   Overcast
8:02 AM 60.8 °F - 59.0 °F 94% 30.07 in 10.0 mi NNW 5.8 mph - N/A   Overcast
8:24 AM 60.8 °F - 57.2 °F 88% 30.07 in 10.0 mi NW 6.9 mph - N/A   Overcast
8:53 AM 62.1 °F - 59.0 °F 90% 30.05 in 10.0 mi North 4.6 mph - N/A   Overcast
9:25 AM 62.6 °F - 59.0 °F 88% 30.07 in 10.0 mi NNE 6.9 mph - N/A   Overcast
9:53 AM 63.0 °F - 59.0 °F 87% 30.05 in 10.0 mi North 5.8 mph - N/A   Overcast
10:04 AM 64.4 °F - 60.8 °F 88% 30.08 in 10.0 mi North 6.9 mph - N/A   Overcast
10:19 AM 64.4 °F - 60.8 °F 88% 30.08 in 10.0 mi North 4.6 mph - N/A   Overcast
10:42 AM 64.4 °F - 60.8 °F 88% 30.08 in 10.0 mi North 3.5 mph - N/A   Overcast
10:53 AM 66.0 °F - 60.1 °F 81% 30.05 in 10.0 mi North 3.5 mph - N/A   Overcast
11:53 AM 68.0 °F - 61.0 °F 78% 30.03 in 10.0 mi North 4.6 mph - N/A   Overcast
12:53 PM 73.0 °F - 62.1 °F 68% 30.01 in 10.0 mi Variable 3.5 mph - N/A   Mostly Cloudy
1:07 PM 73.4 °F - 62.6 °F 69% 30.04 in 10.0 mi Variable 3.5 mph - N/A   Partly Cloudy
1:53 PM 77.0 °F - 63.0 °F 62% 29.99 in 10.0 mi Calm Calm - N/A   Clear
2:17 PM 77.0 °F - 62.6 °F 61% 30.02 in 10.0 mi Calm Calm - N/A   Mostly Cloudy
2:31 PM 77.0 °F - 62.6 °F 61% 30.02 in 10.0 mi Calm Calm - N/A   Scattered Clouds
2:53 PM 78.1 °F - 63.0 °F 60% 29.98 in 10.0 mi Variable 5.8 mph - N/A   Partly Cloudy
3:53 PM 79.0 °F - 63.0 °F 58% 29.96 in 10.0 mi Variable 5.8 mph - N/A   Scattered Clouds
4:53 PM 79.0 °F - 60.1 °F 52% 29.95 in 10.0 mi NE 5.8 mph - N/A   Mostly Cloudy
5:53 PM 82.0 °F 81.4 °F 55.0 °F 39% 29.94 in 10.0 mi NNE 10.4 mph - N/A   Partly Cloudy
6:53 PM 80.1 °F 80.2 °F 55.9 °F 43% 29.94 in 10.0 mi ENE 10.4 mph - N/A   Clear
7:53 PM 77.0 °F - 57.0 °F 50% 29.96 in 10.0 mi ENE 4.6 mph - N/A   Clear
8:53 PM 72.0 °F - 59.0 °F 64% 29.98 in 10.0 mi NNE 5.8 mph - N/A   Clear
9:53 PM 69.1 °F - 57.9 °F 68% 29.99 in 10.0 mi NE 6.9 mph - N/A   Clear
10:53 PM 66.0 °F - 57.9 °F 75% 29.99 in 10.0 mi NNE 6.9 mph - N/A   Clear
11:53 PM 64.9 °F - 57.0 °F 75% 29.99 in 10.0 mi NNE 8.1 mph - N/A   Clear